Weather in Ponomarevka

Russia / Novosibirsk Oblast     56°08′06″N   82°22′07″E
temp.,
°C
wind,
m/s
gust,
m/s
humid.,
%
clouds,
%
prec.,
mm/h
press.,
hPa
HPBL,
m
28 february, sun
sun2801:00−30sw239872 0.0 103766
04:00−31ssw239843 0.0 103665
07:00−32ssw239845 0.0 103738
10:00−29s259733 0.0 1036157
13:00−22sse249351 0.0 1034319
16:00−18se359087 0.0 1031459
19:00−20ese259794 0.0 1028117
22:00−20e3698100 0.0 1026199
1 march, mon
mon101:00−19e379797 0.1 1023219
04:00−18e379798 0.1 1020249
07:00−17ene499699 0.3 1017287
10:00−15ene4996100 0.6 1014289
13:00−12ene51094100 1.1 1011368
16:00−11ene51194100 0.6 1010446
19:00−12ne51194100 1.3 1009494
22:00−13ne51194100 0.7 1010510
2 march, tue
tue201:00−15ne41094100 0.9 1011476
04:00−17ne3995100 0.1 1014335
07:00−20ne259999 0.1 1016116
10:00−19ne249796 0.1 1017230
13:00−15ene239198 0.1 1018388
16:00−13e2391100 0.1 1017475
19:00−14e2496100 0.3 1018179
22:00−15e2497100 0.3 1017131
3 march, wed
wed301:00−17e229898 0.3 101728
04:00−17e229892 0.1 101650
07:00−18ene229888 0.1 101670
10:00−16ene239695 0.1 1016175
13:00−12ene129197 0.2 1017337
16:00−10ene1289100 0.1 1018425
19:00−12ene229699 0.3 101970
22:00−14ese229788 0.1 102134
4 march, thu
thu401:00−16s129894 0.2 102222
04:00−19ssw239891 0.0 102245
07:00−21s239962 0.1 102473
10:00−18sse379560 0.0 1023254
13:00−13sse489378 0.0 1022446
16:00−10sse4891100 0.0 1021544
19:00−11sse3993100 0.1 1020500
22:00−11se31195100 0.0 1018369